If you wish to contribute or participate in the discussions about articles you are invited to join SKYbrary as a registered user

 Actions

Yonaguni

From SKYbrary Wiki

ROYN
Airport
ICAO: ROYN – IATA: OGN
Summary
Name Yonaguni
Region Asia and Pacific
Territory Japan JP.gif
Location Yonaguni, Okinawa Prefecture
Serving Yonaguni
Elevation 14.935 m
49 ft14.935 m
Coordinates 24° 27' 55.14" N, 122° 58' 48.23" E
Runways
Designator Length Width Surface ROPS
8/26 1500 m4,921.26 ft
46 m150.919 ft
ASP yes/yes


METAR
Observation ROYN 171400Z AUTO 02024KT 9000 FEW025 27/24 Q1009
Station Yonaguni Airport
Date/Time 17 September 2019 14:00:00
Wind direction 20°
Wind speed 24 kts
Lowest cloud amount few clouds
Temperature 27°C
Dew point 24°C
Humidity 83%
QNH 1009 hPa
Weather condition n/a

Yonaguni Airport is a third-class airport located in Yonaguni, Yaeyama District, Okinawa Prefecture, Japan.

Climatology

Humid Sub-tropical climate (Köppen climate classification Cfa)

Maps

Terrain

Loading map...

Airport Layout

Loading map...


Accidents & Serious Incidents at or in vicinity of ROYN

None on SKYbrary